EW4547 Weather Reports


time (UTC)temp
C
wind
direction
speed
KPH
gust
KPH
rain 1hr
cm
rain 24hr
cm
rain mn
cm
humidity
%
barometer
mb
20260510210328 28 296 3.2 11.3 0.00 0.00 0.00 49 1015.2
20260510204847 28 109 4.8 9.7 0.00 0.00 0.00 51 1015.0
20260510203349 28 240 4.8 12.9 0.00 0.00 0.00 49 1015.2
20260510201843 28 330 4.8 11.3 0.00 0.00 0.00 51 1015.1
20260510200347 28 194 3.2 14.5 0.00 0.00 0.00 53 1015.1
20260510194903 28 260 6.4 14.5 0.00 0.00 0.00 52 1015.2
20260510193333 28 192 8.0 16.1 0.00 0.00 0.00 51 1015.4
20260510191849 28 219 3.2 9.7 0.00 0.00 0.00 54 1015.5
20260510190354 28 50 1.6 12.9 0.00 0.00 0.00 60 1015.6
20260510184850 27 247 8.0 12.9 0.00 0.00 0.00 55 1016.1
20260510183327 28 284 3.2 9.7 0.00 0.00 0.00 59 1016.0
20260510181842 27 246 6.4 12.9 0.00 0.00 0.00 55 1016.2
20260510180352 27 51 3.2 6.4 0.00 0.00 0.00 65 1016.3
20260510174912 27 215 6.4 11.3 0.00 0.00 0.00 60 1016.4
20260510173337 27 218 3.2 9.7 0.00 0.00 0.00 67 1016.3
20260510171826 26 76 3.2 6.4 0.00 0.00 0.00 70 1016.4
20260510170325 26 72 3.2 6.4 0.00 0.00 0.00 71 1016.3
20260510164836 26 274 1.6 9.7 0.00 0.00 0.00 69 1016.5
20260510163349 26 250 3.2 8.0 0.00 0.00 0.00 71 1016.6
20260510161845 25 58 1.6 8.0 0.00 0.00 0.00 74 1016.7
20260510160326 25 227 3.2 8.0 0.00 0.00 0.00 72 1016.7
20260510154827 25 104 3.2 12.9 0.00 0.00 0.00 76 1017.2
20260510153328 24 242 6.4 8.0 0.00 0.00 0.00 72 1017.1
20260510151846 24 13 6.4 12.9 0.00 0.00 0.00 74 1016.8
20260510150339 24 25 4.8 9.7 0.00 0.00 0.00 79 1016.9
20260510144835 23 344 3.2 8.0 0.00 0.00 0.00 79 1016.9
20260510143348 23 360 1.6 4.8 0.00 0.00 0.00 81 1016.7
20260510141839 23 42 4.8 6.4 0.00 0.00 0.00 83 1016.8
20260510140413 22 302 1.6 8.0 0.00 0.00 0.00 83 1016.9
20260510134829 22 5 3.2 6.4 0.00 0.00 0.00 84 1016.8
20260510133349 21 308 1.6 6.4 0.00 0.00 0.00 84 1016.6
20260510131834 21 279 3.2 4.8 0.00 0.00 0.00 85 1016.6
20260510130331 20 307 1.6 6.4 0.00 0.00 0.00 87 1016.3
20260510124837 20 340 3.2 6.4 0.00 0.00 0.00 89 1016.3
20260510123349 19 284 1.6 6.4 0.00 0.00 0.00 90 1016.2
20260510121831 18 198 1.6 3.2 0.00 0.00 0.00 91 1016.0
20260510120337 17 194 0.0 3.2 0.00 0.00 0.00 91 1016.1
20260510114829 17 173 0.0 1.6 0.00 0.00 0.00 91 1015.8
20260510113349 17 173 0.0 0.0 0.00 0.00 0.00 90 1015.6
20260510111831 16 173 1.6 4.8 0.00 0.00 0.00 90 1015.5
20260510110352 16 172 0.0 0.0 0.00 0.00 0.00 90 1015.3
20260510104830 16 172 0.0 0.0 0.00 0.00 0.00 89 1015.2
20260510103349 16 172 0.0 0.0 0.00 0.00 0.00 89 1014.9
20260510101846 16 172 0.0 0.0 0.00 0.00 0.00 90 1014.6
20260510100332 16 172 0.0 1.6 0.00 0.00 0.00 90 1014.6
20260510094831 16 172 0.0 1.6 0.00 0.00 0.00 89 1014.4
20260510093348 16 172 0.0 3.2 0.00 0.00 0.00 90 1014.2
20260510091847 16 171 0.0 3.2 0.00 0.00 0.00 89 1014.1
20260510090407 16 169 0.0 0.0 0.00 0.00 0.00 89 1013.8
20260510084843 16 169 0.0 3.2 0.00 0.00 0.00 89 1013.6
20260510083346 16 169 0.0 0.0 0.00 0.00 0.00 89 1013.6
20260510081846 16 169 0.0 1.6 0.00 0.00 0.00 89 1013.6
20260510080334 16 169 0.0 0.0 0.00 0.00 0.00 88 1013.5
20260510074853 16 169 0.0 1.6 0.00 0.00 0.00 88 1013.4
20260510073346 16 168 0.0 1.6 0.00 0.00 0.00 88 1013.4
20260510071856 16 168 0.0 0.0 0.00 0.00 0.00 88 1013.4
20260510070330 16 168 0.0 0.0 0.00 0.00 0.00 88 1013.5
20260510064844 16 168 0.0 0.0 0.00 0.00 0.00 88 1013.5
20260510063335 16 168 0.0 0.0 0.00 0.00 0.00 87 1013.4
20260510061835 16 168 0.0 0.0 0.00 0.00 0.00 87 1013.3
20260510060357 16 168 0.0 0.0 0.00 0.00 0.00 87 1013.3
20260510054847 17 168 0.0 0.0 0.00 0.00 0.00 87 1013.5
20260510044848 17 168 0.0 0.0 0.00 0.00 0.00 86 1014.1
20260510043328 17 168 0.0 0.0 0.00 0.00 0.00 86 1014.2
20260510041844 17 168 0.0 0.0 0.00 0.00 0.00 85 1014.0
20260510040336 17 168 0.0 0.0 0.00 0.00 0.00 85 1014.0
20260510034847 17 168 0.0 0.0 0.00 0.00 0.00 86 1013.9
20260510033335 17 168 0.0 0.0 0.00 0.00 0.00 86 1013.8
20260510031846 17 168 0.0 0.0 0.00 0.00 0.00 85 1013.6
20260510030337 17 168 0.0 0.0 0.00 0.00 0.00 85 1013.6
20260510024850 18 168 0.0 0.0 0.00 0.00 0.00 84 1013.5
20260510021834 18 168 0.0 0.0 0.00 0.00 0.00 83 1013.4
20260510020332 18 168 0.0 0.0 0.00 0.00 0.00 83 1013.4
20260510014829 18 168 0.0 0.0 0.00 0.00 0.00 83 1013.2
20260510013342 18 168 0.0 0.0 0.00 0.00 0.00 81 1012.8
20260510011830 19 168 0.0 0.0 0.00 0.00 0.00 80 1012.6
20260510010349 20 168 0.0 0.0 0.00 0.00 0.00 80 1012.8
20260510004905 20 168 0.0 0.0 0.00 0.00 0.00 79 1012.5
20260510003328 20 168 0.0 0.0 0.00 0.00 0.00 79 1012.4
20260510001848 21 168 0.0 0.0 0.00 0.00 0.00 78 1012.5
20260510000326 21 168 0.0 0.0 0.00 0.00 0.00 78 1012.5
20260509234824 22 168 0.0 0.0 0.00 0.00 0.00 78 1012.4
20260509233326 22 169 0.0 1.6 0.00 0.00 0.00 78 1012.0
20260509231842 22 168 1.6 4.8 0.00 0.00 0.00 78 1012.0
20260509230346 22 165 3.2 4.8 0.00 0.00 0.00 78 1011.9
20260509224846 22 161 1.6 4.8 0.00 0.00 0.00 78 1011.6
20260509223339 22 222 3.2 8.0 0.00 0.00 0.00 77 1011.8
20260509221827 22 225 1.6 8.0 0.00 0.00 0.00 78 1011.8
20260509220348 22 232 4.8 11.3 0.00 0.00 0.00 77 1011.8
20260509214832 22 211 1.6 6.4 0.00 0.00 0.00 77 1011.9
20260509213331 22 235 3.2 12.9 0.00 0.00 0.00 77 1011.7
20260509211832 22 234 4.8 12.9 0.00 0.00 0.00 77 1011.7